> Flugplatz > 
Stacks Image 3
Aktuelle METAR Daten (Memmingen, Friedrichshafen, Laupheim):
2017/05/28 06:20 EDJA 281820Z 08006KT CAVOK 26/11 Q1019
2017/05/28 06:20 EDNY 281820Z VRB02KT CAVOK 26/10 Q1018
2017/05/28 05:20 ETHL 281720Z 06005KT 9999 FEW060 BKN280 27/11 Q1019 BLU+
Sicherheits- und Servicehinweise:

Bitte achten Sie beim Anflug auf mögliche Fall­schirm­springer auf der Nordseite des Platzes, kontaktieren Sie zur Sicherheit den Flugleiter auf Leutkirch INFO 122,875.

Zollabfertigung:
für Ein- und Ausflug bei Voranmeldung mindestens 3 Stunden, nur Personenverkehr – keine Warenabfertigung.

Günstig Tanken:
AvGas 100LL · Jet A1l

Aktuelles:

Sommerflugbetrieb:
Der Flugplatz ist Mo – Sa von 09:00 Uhr
bis SS+30/20:00 Uhr (loc)
So. + Feiertags ab 10:30 Uhr
bis SS+30/20:00 Uhr (loc) geöffnet.

Weitere Informationen finden Sie in unserem Newsbereich.

Nutzen Sie unsere Online-Anmeldung zur Zoll- und Passkontrolle.